Weather reports worldwide

Advertisment
Toulouse/Blagnac, France (7630): temperature & dewpoint: 16.03.2019 18:00:00 - 22.03.2019 18:00:00 (CET)Toulouse/Blagnac, France (7630): temperature 5cm: 16.03.2019 18:00:00 - 22.03.2019 18:00:00 (CET)Toulouse/Blagnac, France (7630): temperature -20cm & temperature -100cm: 16.03.2019 18:00:00 - 22.03.2019 18:00:00 (CET)Toulouse/Blagnac, France (7630): wind speed & gusts: 16.03.2019 18:00:00 - 22.03.2019 18:00:00 (CET)Toulouse/Blagnac, France (7630): wind direction: 16.03.2019 18:00:00 - 22.03.2019 18:00:00 (CET)Toulouse/Blagnac, France (7630): reduced air pressure: 16.03.2019 18:00:00 - 22.03.2019 18:00:00 (CET)Toulouse/Blagnac, France (7630): visibility: 16.03.2019 18:00:00 - 22.03.2019 18:00:00 (CET)Toulouse/Blagnac, France (7630): sunshine duration: 16.03.2019 18:00:00 - 22.03.2019 18:00:00 (CET)Toulouse/Blagnac, France (7630): precipitation: 16.03.2019 18:00:00 - 22.03.2019 18:00:00 (CET)
Date & Time tt [°C] td [°C] tt 5cm [°C] tt -20cm [°C] tt -100cm [°C] ff [km/h] ff [kn] fx [km/h] fx [kn] dd ppp [hPa] vv [km] sd [min] rr [mm]
22.03.2019 18:00:00 19,1 3,3 19,0 10,6 11,1 7 4 19 10 SE 1025,7 41 60 0,0
22.03.2019 17:00:00 19,6 2,4 23,6 10,4 11,0 9 5 22 12 SE 1025,7 31 60 0,0
22.03.2019 16:00:00 19,5 3,2 25,3 10,2 11,1 12 7 32 17 SSE 1026,3 20 60 0,0
22.03.2019 15:00:00 19,3 0,8 27,4 9,9 11,1 7 4 25 13 E 1027,0 34 60 0,0
22.03.2019 14:00:00 19,0 1,5 29,5 9,6 11,1 5 3 17 9 SE 1027,6 27 60 0,0
22.03.2019 13:00:00 17,5 1,4 26,5 9,4 11,1 7 4 18 10 ENE 1028,5 20 60 0,0
22.03.2019 12:00:00 15,6 -0,6 25,5 9,3 11,1 6 3 13 7 NE 1029,1 14 60 0,0
22.03.2019 11:00:00 13,8 1,7 16,8 9,3 11,1 2 1 9 5 E 1029,7 18 60 0,0
22.03.2019 10:00:00 9,6 1,2 12,0 9,3 11,1 3 2 8 5 NNW 1030,1 17 60 0,0
22.03.2019 09:00:00 6,2 2,1 3,1 9,4 11,1 4 2 13 7 S 1030,2 14 60 0,0
22.03.2019 08:00:00 3,1 1,0 -2,3 9,5 11,1 7 4 10 6 S 1030,0 16 43 0,0
22.03.2019 07:00:00 1,6 -0,2 -2,4 9,6 11,1 5 3 11 6 S 1029,5 14 0 0,0
22.03.2019 06:00:00 2,1 0,0 -2,4 9,7 11,1 6 3 8 5 SSE 1029,3 11 0 0,0
22.03.2019 05:00:00 2,7 0,6 -2,0 9,8 11,1 5 3 10 6 S 1029,3 16 0 0,0
22.03.2019 04:00:00 3,1 0,3 -1,5 10,0 11,1 6 3 10 5 S 1029,2 16 0 0,0
22.03.2019 03:00:00 4,0 0,9 -1,0 10,1 11,1 3 2 10 5 SSE 1029,4 14 0 0,0
22.03.2019 02:00:00 4,7 0,8 -0,8 10,2 11,1 5 3 8 4 S 1029,3 10 0 0,0
22.03.2019 01:00:00 5,3 0,8 -0,7 10,3 11,1 7 4 8 5 S 1029,1 9 0 0,0
22.03.2019 00:00:00 7,0 -0,7 0,1 10,4 11,1 2 1 7 4 NW 1029,2 15 0 0,0
21.03.2019 23:00:00 8,3 -0,5 0,6 10,5 11,1 2 1 9 5 SSE 1029,1 19 0 0,0
21.03.2019 22:00:00 10,7 -1,1 2,5 10,5 11,1 3 2 10 5 NNE 1028,9 22 0 0,0
21.03.2019 21:00:00 11,7 -1,5 3,3 10,6 11,1 4 2 9 5 NNW 1028,7 36 0 0,0
21.03.2019 20:00:00 12,8 -1,9 6,3 10,6 11,1 6 4 12 7 NW 1028,3 33 0 0,0
21.03.2019 19:00:00 14,1 -2,0 8,4 10,5 11,1 6 4 11 6 WNW 1027,9 45 46 0,0
21.03.2019 18:00:00 15,9 -1,2 16,7 10,3 11,1 5 3 19 10 WSW 1027,6 44 60 0,0
21.03.2019 17:00:00 15,9 -0,8 22,2 10,2 11,1 11 6 24 13 NNW 1027,7 35 60 0,0
21.03.2019 16:00:00 15,9 0,4 25,6 9,9 11,1 13 7 25 13 N 1027,8 46 60 0,0
21.03.2019 15:00:00 15,5 1,2 25,1 9,7 11,1 10 5 24 13 N 1028,1 37 60 0,0
21.03.2019 14:00:00 15,0 0,8 24,9 9,4 11,1 6 3 21 11 WNW 1028,7 38 60 0,0
21.03.2019 13:00:00 14,1 0,3 25,6 9,2 11,1 6 3 15 8 N 1029,5 36 60 0,0
21.03.2019 12:00:00 13,3 1,3 23,3 9,1 11,1 5 3 11 6 E 1030,0 44 60 0,0
21.03.2019 11:00:00 11,1 1,1 17,0 9,1 11,1 4 2 10 5 NE 1030,4 23 60 0,0
21.03.2019 10:00:00 9,3 0,7 10,9 9,1 11,1 3 1 8 5 NNE 1030,8 27 60 0,0
21.03.2019 09:00:00 5,7 0,2 2,5 9,2 11,1 4 2 11 6 WNW 1030,8 20 60 0,0
21.03.2019 08:00:00 2,1 -0,5 -3,2 9,3 11,1 7 4 12 6 SSE 1031,1 19 43 0,0
21.03.2019 07:00:00 0,7 -1,4 -4,3 9,4 11,1 7 4 12 7 SSW 1030,7 30 0 0,0
21.03.2019 06:00:00 0,3 -1,9 -3,9 9,6 11,2 9 5 10 6 S 1030,4 29 0 0,0
21.03.2019 05:00:00 1,5 -1,4 -3,7 9,7 11,1 4 2 8 4 S 1030,2 35 0 0,0
21.03.2019 04:00:00 1,7 -1,0 -3,1 9,8 11,1 3 2 14 8 SSW 1029,8 37 0 0,0
21.03.2019 03:00:00 1,5 -1,6 -2,8 9,9 11,1 8 4 13 7 S 1030,4 34 0 0,0
21.03.2019 02:00:00 3,1 -1,5 -2,1 10,0 11,1 6 3 10 6 SSW 1030,8 34 0 0,0
21.03.2019 01:00:00 4,2 -1,4 -1,5 10,1 11,2 8 4 14 7 S 1030,9 32 0 0,0
21.03.2019 00:00:00 5,2 -1,5 0,1 10,2 11,1 8 4 16 9 S 1031,0 35 0 0,0
20.03.2019 23:00:00 9,2 -2,1 5,4 10,3 11,1 13 7 23 12 W 1030,9 53 0 0,0
20.03.2019 22:00:00 9,3 -1,7 6,5 10,4 11,2 14 8 26 14 WSW 1031,0 48 0 0,0
20.03.2019 21:00:00 10,7 -2,0 7,6 10,4 11,2 18 10 26 14 WSW 1030,9 50 0 0,0
20.03.2019 20:00:00 11,0 -1,8 7,2 10,3 11,1 14 7 24 13 WSW 1030,4 54 0 0,0
20.03.2019 19:00:00 12,0 -3,0 7,9 10,3 11,1 10 6 18 10 WSW 1030,3 49 45 0,0
20.03.2019 18:00:00 14,1 -2,8 15,6 10,2 11,1 7 4 23 12 W 1029,7 46 60 0,0
20.03.2019 17:00:00 14,7 -3,2 17,8 10,0 11,1 6 3 29 16 W 1029,7 46 60 0,0
20.03.2019 16:00:00 14,5 -2,5 17,6 9,8 11,2 20 11 40 22 NW 1029,9 41 60 0,0
20.03.2019 15:00:00 13,2 -1,9 14,9 9,6 11,1 13 7 26 14 NW 1030,3 35 44 0,0
20.03.2019 14:00:00 13,5 -0,2 21,4 9,4 11,1 13 7 31 17 W 1030,8 20 60 0,0
20.03.2019 13:00:00 12,6 -0,3 21,2 9,2 11,1 10 5 26 14 NW 1031,6 56 60 0,0
20.03.2019 12:00:00 11,7 -1,5 20,3 9,1 11,2 7 4 19 10 NW 1031,9 43 60 0,0
20.03.2019 11:00:00 11,0 0,7 13,9 9,1 11,1 7 4 19 10 ENE 1032,3 35 60 0,0
20.03.2019 10:00:00 8,0 0,9 10,0 9,1 11,2 11 6 20 11 NW 1032,3 42 60 0,0
20.03.2019 09:00:00 6,1 0,8 3,3 9,2 11,2 11 6 16 9 NW 1032,4 36 60 0,0
20.03.2019 08:00:00 3,0 0,4 -2,4 9,3 11,1 8 4 13 7 WNW 1032,0 28 41 0,0
20.03.2019 07:00:00 1,3 -0,6 -2,6 9,4 11,2 6 3 11 6 WNW 1031,7 44 0 0,0
20.03.2019 06:00:00 1,9 -0,8 -1,8 9,5 11,2 4 2 15 8 W 1031,2 46 0 0,0
20.03.2019 05:00:00 2,8 0,0 -1,6 9,6 11,1 9 5 16 9 WNW 1031,0 57 0 0,0
20.03.2019 04:00:00 3,1 -0,2 -2,4 9,7 11,2 5 3 14 7 NW 1030,9 60 0 0,0
20.03.2019 03:00:00 4,4 0,4 1,7 9,7 11,1 11 6 16 9 NW 1031,0 60 0 0,0
20.03.2019 02:00:00 5,2 1,3 1,9 9,8 11,2 13 7 16 9 NW 1031,1 59 0 0,0
20.03.2019 01:00:00 5,5 2,0 2,7 9,9 11,2 10 5 21 12 WNW 1030,9 58 0 0,0
20.03.2019 00:00:00 6,5 2,6 4,7 9,9 11,2 14 8 31 17 WNW 1030,8 60 0 0,0
19.03.2019 23:00:00 7,9 3,0 6,3 10,0 11,2 21 12 30 16 W 1030,2 59 0 0,0
19.03.2019 22:00:00 8,8 3,2 7,9 10,0 11,2 19 10 30 16 W 1029,7 60 0 0,0
19.03.2019 21:00:00 9,0 3,2 7,8 10,0 11,2 20 11 28 15 W 1029,4 60 0 0,0
19.03.2019 20:00:00 9,1 3,3 7,6 10,1 11,2 15 8 24 13 W 1029,2 60 0 0,0
19.03.2019 19:00:00 9,4 3,4 8,1 10,0 11,2 15 8 30 16 WNW 1028,8 58 0 0,0
19.03.2019 18:00:00 10,0 2,8 9,3 10,0 11,2 18 10 31 17 WNW 1028,1 59 0 0,0
19.03.2019 17:00:00 10,5 2,6 10,1 10,0 11,2 24 13 31 17 NW 1027,8 60 0 0,0
19.03.2019 16:00:00 10,5 2,6 9,8 10,0 11,2 20 11 35 19 NW 1027,5 57 0 0,0
19.03.2019 15:00:00 10,6 2,9 10,1 9,9 11,1 20 11 34 18 WNW 1027,1 51 9 0,0
19.03.2019 14:00:00 9,6 3,1 9,6 9,9 11,2 26 14 35 19 NW 1027,7 35 6 0,0
19.03.2019 13:00:00 9,5 4,3 8,8 9,9 11,2 19 11 31 17 NW 1028,1 35 0 0,0
19.03.2019 12:00:00 9,0 5,6 8,6 9,8 11,2 15 8 29 16 NNW 1027,9 50 0 0,2
19.03.2019 11:00:00 8,3 5,6 9,5 9,8 11,2 22 12 30 16 NW 1027,9 32 0 0,0
19.03.2019 10:00:00 7,6 5,7 6,8 9,8 11,2 16 8 22 12 NW 1027,8 40 0 0,0
19.03.2019 09:00:00 6,7 5,6 6,0 9,8 11,1 15 8 22 12 WNW 1027,5 40 0 0,0
19.03.2019 08:00:00 6,2 5,3 5,2 9,9 11,2 11 6 24 13 WNW 1027,2 51 0 0,0
19.03.2019 07:00:00 5,8 5,1 5,1 10,0 11,2 16 9 25 13 W 1026,4 55 0 0,0
19.03.2019 06:00:00 5,8 4,9 5,0 10,0 11,2 16 9 26 14 W 1026,5 55 0 0,0
19.03.2019 05:00:00 5,8 4,9 5,1 10,1 11,2 17 9 29 16 W 1026,2 50 0 0,0
19.03.2019 04:00:00 5,9 4,7 5,1 10,1 11,2 17 9 25 13 W 1026,1 60 0 0,0
19.03.2019 03:00:00 6,0 4,6 5,3 10,1 11,2 14 7 39 21 W 1026,4 20 0 0,8
19.03.2019 02:00:00 7,0 4,1 6,2 10,2 11,2 25 14 40 22 W 1026,7 29 0 0,0
19.03.2019 01:00:00 8,0 4,0 6,9 10,2 11,2 19 10 32 18 W 1026,6 39 0 0,0
19.03.2019 00:00:00 8,4 3,8 7,3 10,3 11,2 20 11 31 17 W 1026,7 46 0 0,0
18.03.2019 23:00:00 8,3 4,1 6,9 10,3 11,2 13 7 23 12 W 1027,1 54 0 0,0
18.03.2019 22:00:00 8,3 4,3 7,5 10,4 11,2 14 8 37 20 NNW 1027,2 60 0 0,0
18.03.2019 21:00:00 9,1 3,7 8,3 10,4 11,2 17 9 27 15 WNW 1026,7 57 0 0,0
18.03.2019 20:00:00 9,5 3,2 8,5 10,4 11,1 18 10 49 27 NW 1026,2 60 0 0,0
18.03.2019 19:00:00 10,8 2,1 9,8 10,4 11,1 21 11 33 18 W 1025,9 54 0 0,0
18.03.2019 18:00:00 11,0 2,3 10,6 10,3 11,2 31 17 42 23 W 1025,7 18 9 0,0
18.03.2019 17:00:00 12,9 0,6 11,1 10,3 11,2 27 15 42 23 WNW 1025,3 23 35 0,0
18.03.2019 16:00:00 13,3 0,3 15,5 10,1 11,1 26 14 39 21 NW 1025,6 36 60 0,0
18.03.2019 15:00:00 11,7 0,7 12,9 10,0 11,2 22 12 41 22 NW 1026,1 30 38 0,0
18.03.2019 14:00:00 12,2 2,9 12,4 9,9 11,1 21 12 36 20 WNW 1026,8 38 12 0,0
18.03.2019 13:00:00 11,7 2,2 13,1 9,8 11,2 22 12 39 21 NW 1027,3 32 35 0,0
18.03.2019 12:00:00 10,6 1,7 9,9 9,8 11,2 25 13 36 20 WNW 1027,9 44 14 0,0
18.03.2019 11:00:00 9,6 2,7 10,1 9,8 11,1 22 12 36 20 WNW 1027,9 33 17 0,0
18.03.2019 10:00:00 9,1 3,9 8,1 9,8 11,1 20 11 35 19 WNW 1027,6 20 49 0,0
18.03.2019 09:00:00 7,6 3,8 5,7 9,9 11,1 27 14 38 21 W 1027,2 38 60 0,0
18.03.2019 08:00:00 5,8 3,3 4,6 9,9 11,1 19 10 34 19 W 1026,9 44 30 0,0
18.03.2019 07:00:00 5,7 3,4 4,1 10,0 11,1 23 12 33 18 WNW 1026,3 43 0 0,0
18.03.2019 06:00:00 5,7 3,4 4,5 10,1 11,1 21 12 33 18 W 1025,9 19 0 0,0
18.03.2019 05:00:00 6,1 3,4 4,6 10,1 11,1 22 12 34 18 W 1025,3 34 0 0,0
18.03.2019 04:00:00 5,9 2,7 4,7 10,3 11,1 22 12 31 17 W 1025,1 35 0 0,0
18.03.2019 03:00:00 6,3 2,7 5,0 10,3 11,1 23 12 34 19 W 1024,8 46 0 0,0
18.03.2019 02:00:00 6,6 2,7 4,9 10,4 11,1 21 11 32 18 W 1025,3 45 0 0,0
18.03.2019 01:00:00 6,4 2,3 4,4 10,5 11,1 22 12 32 18 W 1025,4 47 0 0,0
18.03.2019 00:00:00 6,1 2,2 4,6 10,6 11,1 22 12 31 17 W 1025,6 51 0 0,0
17.03.2019 23:00:00 6,5 2,0 4,7 10,7 11,1 21 11 32 17 W 1025,2 52 0 0,0
17.03.2019 22:00:00 7,3 1,6 5,4 10,8 11,1 22 12 33 18 W 1024,7 54 0 0,0
17.03.2019 21:00:00 8,5 0,9 6,5 10,9 11,1 20 11 42 23 W 1024,1 60 0 0,0
17.03.2019 20:00:00 9,2 0,9 7,4 10,9 11,1 26 14 44 24 WNW 1022,9 60 0 0,0
17.03.2019 19:00:00 10,4 1,5 8,9 10,9 11,1 29 16 55 30 WNW 1021,9 57 34 0,0
17.03.2019 18:00:00 12,0 1,9 12,2 10,9 11,1 34 18 54 29 WNW 1020,9 29 58 0,0
17.03.2019 17:00:00 12,1 3,8 10,4 10,9 11,1 31 17 54 29 WNW 1020,4 18 37 0,0
17.03.2019 16:00:00 11,9 6,2 11,8 10,8 11,1 35 19 54 29 WNW 1020,3 37 7 0,0
17.03.2019 15:00:00 10,6 6,3 10,1 10,8 11,1 37 20 57 31 NW 1020,3 48 0 0,0
17.03.2019 14:00:00 10,0 8,1 10,0 10,8 11,1 45 25 64 35 NW 1019,8 11 0 0,0
17.03.2019 13:00:00 13,6 7,8 13,2 10,7 11,1 22 12 34 18 W 1018,4 9 0 0,0
17.03.2019 12:00:00 12,8 7,7 13,1 10,7 11,1 20 11 34 18 SW 1018,9 26 12 0,0
17.03.2019 11:00:00 12,0 8,5 11,0 10,7 11,1 16 8 26 14 SSW 1019,1 17 0 0,0
17.03.2019 10:00:00 11,3 8,3 11,3 10,7 11,1 13 7 21 11 SW 1019,4 13 1 0,0
17.03.2019 09:00:00 10,8 8,0 9,3 10,7 11,1 13 7 18 10 S 1018,7 15 11 0,0
17.03.2019 08:00:00 9,7 7,6 8,8 10,8 11,1 8 5 16 8 SSW 1018,2 15 0 0,0
17.03.2019 07:00:00 9,5 7,3 8,7 10,8 11,1 8 4 21 11 W 1017,5 11 0 0,0
17.03.2019 06:00:00 9,2 7,0 8,4 10,9 11,1 14 8 39 21 WNW 1016,6 15 0 0,0
17.03.2019 05:00:00 8,9 7,0 7,5 11,0 11,1 29 16 50 27 WNW 1015,4 15 0 0,0
17.03.2019 04:00:00 9,6 6,1 3,0 11,0 11,0 27 15 39 21 W 1013,9 32 0 0,0
17.03.2019 03:00:00 7,1 4,1 1,1 11,2 11,1 8 5 29 16 SE 1013,6 19 0 0,0
17.03.2019 02:00:00 6,9 4,0 2,0 11,3 11,1 9 5 14 8 S 1013,7 20 0 0,0
17.03.2019 01:00:00 9,0 4,2 2,2 11,4 11,1 6 3 8 4 SE 1013,8 17 0 0,0
17.03.2019 00:00:00 9,2 4,8 3,0 11,5 11,0 8 4 11 6 S 1014,2 17 0 0,0
16.03.2019 23:00:00 9,6 5,2 3,0 11,6 11,0 8 4 11 6 SSE 1014,8 13 0 0,0
16.03.2019 22:00:00 11,4 5,0 3,1 11,7 11,1 3 2 8 4 SE 1015,2 4,0 0 0,0
16.03.2019 21:00:00 13,6 4,7 4,2 11,7 11,0 3 2 9 5 NW 1015,1 1,5 0 0,0
16.03.2019 20:00:00 15,9 5,2 6,1 11,7 11,0 6 3 14 8 ESE 1014,7 9 0 0,0
16.03.2019 19:00:00 17,8 4,7 11,5 11,6 11,0 8 5 14 8 E 1014,8 60 30 0,0
16.03.2019 18:00:00 19,0 4,3 18,4 11,5 11,0 9 5 16 9 ESE 1015,5 47 60 0,0

tt = temperature
td = dewpoint
tt 5cm = temperature 5cm
tt -20cm = temperature -20cm
tt -100cm = temperature -100cm
ff = wind speed
fx = gusts
dd = wind direction
ppp = reduced air pressure
vv = visibility
sd = sunshine duration
rr = precipitation

Next stations